KD7KCN-5 Weather Reports


Display with metric or nautical units.
time (UTC)temp
F
wind
direction
speed
MPH
gust
MPH
rain 1hr
in
rain 24hr
in
rain mn
in
humidity
%
barometer
mb
20260904013538 74 162 13.0 21.0 0.00 0.00 0.00 14 1012.1
20260904012537 74 152 13.0 22.0 0.00 0.00 0.00 14 1012.0
20260904011537 74 140 15.0 28.0 0.00 0.00 0.00 12 1012.1
20260904010537 75 221 22.0 38.0 0.00 0.00 0.00 12 1012.1
20260904005538 76 159 27.0 39.0 0.00 0.00 0.00 11 1011.9
20260904004539 76 152 24.0 38.0 0.00 0.00 0.00 13 1012.2
20260904003538 76 130 17.0 41.0 0.00 0.00 0.00 13 1012.2
20260904002539 76 167 19.0 33.0 0.00 0.00 0.00 14 1012.2
20260904001537 76 136 18.0 32.0 0.00 0.00 0.00 14 1012.2
20260904000537 77 148 20.0 36.0 0.00 0.00 0.00 14 1012.3
20260903234537 77 156 14.0 37.0 0.00 0.00 0.00 15 1012.2
20260903233537 77 128 25.0 37.0 0.00 0.00 0.00 15 1012.2
20260903232537 78 182 15.0 42.0 0.00 0.00 0.00 15 1012.5
20260903231539 77 193 16.0 35.0 0.00 0.00 0.00 15 1012.4
20260903230538 77 143 20.0 38.0 0.00 0.00 0.00 15 1012.3
20260903225538 77 157 18.0 37.0 0.00 0.00 0.00 15 1012.5
20260903224537 78 185 15.0 30.0 0.00 0.00 0.00 16 1012.7
20260903223537 78 129 19.0 35.0 0.00 0.00 0.00 15 1012.6
20260903222539 78 137 25.0 40.0 0.00 0.00 0.00 15 1012.7
20260903221538 78 144 21.0 36.0 0.00 0.00 0.00 15 1013.1
20260903220538 78 167 15.0 35.0 0.00 0.00 0.00 15 1013.2
20260903215538 78 124 18.0 39.0 0.00 0.00 0.00 15 1013.1
20260903214538 76 154 15.0 43.0 0.00 0.00 0.00 15 1013.6
20260903212539 78 142 25.0 36.0 0.00 0.00 0.00 15 1013.5
20260903211538 77 132 24.0 36.0 0.00 0.00 0.00 15 1013.7
20260903205539 76 140 25.0 40.0 0.00 0.00 0.00 16 1013.9
20260903204633 76 190 18.0 40.0 0.00 0.00 0.00 16 1013.9
20260903204538 76 190 18.0 40.0 0.00 0.00 0.00 16 1013.9
20260903203538 75 166 25.0 42.0 0.00 0.00 0.00 16 1014.1
20260903202538 75 138 29.0 39.0 0.00 0.00 0.00 16 1014.0
20260903200538 75 156 22.0 38.0 0.00 0.00 0.00 15 1014.4
20260903195538 75 132 21.0 39.0 0.00 0.00 0.00 15 1014.2
20260903194538 74 135 26.0 42.0 0.00 0.00 0.00 15 1014.3
20260903193538 74 175 21.0 38.0 0.00 0.00 0.00 15 1014.6
20260903192538 74 137 25.0 38.0 0.00 0.00 0.00 14 1014.9
20260903191538 74 166 18.0 40.0 0.00 0.00 0.00 16 1014.3
20260903190538 74 188 13.0 40.0 0.00 0.00 0.00 16 1014.9
20260903185538 74 161 21.0 33.0 0.00 0.00 0.00 17 1015.1
20260903184538 74 167 21.0 36.0 0.00 0.00 0.00 17 1015.2
20260903183539 73 133 19.0 33.0 0.00 0.00 0.00 18 1015.3
20260903181538 72 152 28.0 37.0 0.00 0.00 0.00 18 1015.4
20260903174539 72 139 25.0 39.0 0.00 0.00 0.00 1015.3
20260903173539 72 169 18.0 34.0 0.00 0.00 0.00 18 1015.5
20260903172538 72 202 16.0 35.0 0.00 0.00 0.00 18 1015.5
20260903171538 71 155 19.0 35.0 0.00 0.00 0.00 18 1015.4
20260903170538 71 203 26.0 43.0 0.00 0.00 0.00 19 1015.5
20260903165538 71 195 19.0 33.0 0.00 0.00 0.00 19 1015.5
20260903164539 71 176 19.0 35.0 0.00 0.00 0.00 19 1015.4
20260903163538 71 142 15.0 31.0 0.00 0.00 0.00 18 1015.4
20260903162538 71 130 18.0 27.0 0.00 0.00 0.00 18 1015.3
20260903161539 72 129 18.0 26.0 0.00 0.00 0.00 17 1015.4
20260903160539 71 162 10.0 22.0 0.00 0.00 0.00 18 1015.6
20260903155538 70 132 14.0 26.0 0.00 0.00 0.00 18 1015.6
20260903154538 70 126 21.0 28.0 0.00 0.00 0.00 17 1015.5
20260903153538 70 123 17.0 28.0 0.00 0.00 0.00 18 1015.4
20260903152539 70 117 20.0 24.0 0.00 0.00 0.00 17 1015.5
20260903151540 69 117 16.0 22.0 0.00 0.00 0.00 18 1015.6
20260903150539 69 109 14.0 18.0 0.00 0.00 0.00 18 1015.7
20260903144540 68 99 12.0 14.0 0.00 0.00 0.00 19 1015.8
20260903143539 67 120 11.0 14.0 0.00 0.00 0.00 19 1015.9
20260903141539 65 118 11.0 13.0 0.00 0.00 0.00 20 1015.7
20260903140542 65 125 11.0 14.0 0.00 0.00 0.00 19 1015.7
20260903135539 64 124 11.0 18.0 0.00 0.00 0.00 19 1015.7
20260903134539 64 126 11.0 14.0 0.00 0.00 0.00 20 1015.7
20260903133539 63 133 8.0 13.0 0.00 0.00 0.00 20 1015.7
20260903132539 63 132 10.0 14.0 0.00 0.00 0.00 20 1015.5
20260903131540 64 146 9.0 17.0 0.00 0.00 0.00 19 1015.4
20260903130539 65 140 9.0 20.0 0.00 0.00 0.00 19 1015.3
20260903124539 65 205 12.0 21.0 0.00 0.00 0.00 19 1015.4
20260903122539 63 199 10.0 15.0 0.00 0.00 0.00 19 1015.3
20260903121539 64 132 7.0 23.0 0.00 0.00 0.00 19 1015.4
20260903120539 63 144 7.0 14.0 0.00 0.00 0.00 19 1015.2
20260903115539 63 138 3.0 9.0 0.00 0.00 0.00 19 1015.2
20260903114539 63 165 3.0 13.0 0.00 0.00 0.00 19 1015.2
20260903113539 63 130 3.0 5.0 0.00 0.00 0.00 19 1015.2
20260903112539 63 129 3.0 5.0 0.00 0.00 0.00 19 1015.3
20260903111540 63 129 2.0 5.0 0.00 0.00 0.00 19 1015.3
20260903104542 64 138 6.0 15.0 0.00 0.00 0.00 18 1015.5
20260903103539 64 135 4.0 11.0 0.00 0.00 0.00 18 1015.5
20260903101539 65 172 11.0 20.0 0.00 0.00 0.00 18 1015.4
20260903094539 64 0 0.0 10.0 0.00 0.00 0.00 17 1015.6
20260903092540 65 141 3.0 8.0 0.00 0.00 0.00 16 1015.6
20260903084539 66 196 4.0 10.0 0.00 0.00 0.00 16 1015.7
20260903083539 66 155 5.0 13.0 0.00 0.00 0.00 15 1015.7
20260903082539 66 186 8.0 13.0 0.00 0.00 0.00 15 1015.7
20260903080539 67 158 7.0 14.0 0.00 0.00 0.00 15 1015.6
20260903075540 67 178 11.0 16.0 0.00 0.00 0.00 14 1015.7
20260903074539 67 203 9.0 12.0 0.00 0.00 0.00 14 1015.6
20260903073540 67 184 12.0 16.0 0.00 0.00 0.00 14 1015.7
20260903072539 67 168 10.0 14.0 0.00 0.00 0.00 14 1015.7
20260903071539 67 185 7.0 13.0 0.00 0.00 0.00 13 1015.7
20260903070540 68 133 7.0 12.0 0.00 0.00 0.00 12 1015.7
20260903065539 68 146 10.0 15.0 0.00 0.00 0.00 12 1015.6
20260903064542 69 196 12.0 16.0 0.00 0.00 0.00 12 1015.6
20260903063540 69 148 13.0 19.0 0.00 0.00 0.00 12 1015.5
20260903062540 69 145 11.0 16.0 0.00 0.00 0.00 12 1015.3
20260903061540 69 171 6.0 16.0 0.00 0.00 0.00 12 1015.3
20260903060541 69 211 7.0 14.0 0.00 0.00 0.00 12 1015.3
20260903055541 69 181 11.0 15.0 0.00 0.00 0.00 11 1015.3
20260903054542 70 169 11.0 21.0 0.00 0.00 0.00 11 1015.2
20260903052541 70 160 10.0 17.0 0.00 0.00 0.00 11 1015.3
20260903050540 71 148 9.0 16.0 0.00 0.00 0.00 11 1015.4
20260903045540 71 152 6.0 19.0 0.00 0.00 0.00 11 1015.5
20260903044540 71 194 8.0 15.0 0.00 0.00 0.00 10 1015.6
20260903043540 71 185 4.0 17.0 0.00 0.00 0.00 10 1015.7
20260903042540 71 199 11.0 17.0 0.00 0.00 0.00 10 1015.6
20260903041541 71 237 8.0 17.0 0.00 0.00 0.00 11 1015.4
20260903040540 70 210 5.0 10.0 0.00 0.00 0.00 11 1015.4
20260903034540 71 212 2.0 13.0 0.00 0.00 0.00 10 1015.2
20260903033540 71 156 10.0 14.0 0.00 0.00 0.00 10 1015.0
20260903032540 71 158 5.0 12.0 0.00 0.00 0.00 10 1015.0
20260903031540 71 187 7.0 14.0 0.00 0.00 0.00 10 1014.8
20260903030540 71 186 10.0 14.0 0.00 0.00 0.00 9 1014.8
20260903024541 72 196 6.0 14.0 0.00 0.00 0.00 10 1014.5
20260903022541 73 221 5.0 8.0 0.00 0.00 0.00 10 1014.3
20260903021541 74 183 5.0 16.0 0.00 0.00 0.00 10 1014.4
20260903020541 74 210 13.0 23.0 0.00 0.00 0.00 10 1014.3
20260903015541 74 148 8.0 24.0 0.00 0.00 0.00 9 1014.3
20260903014541 74 207 13.0 22.0 0.00 0.00 0.00 9 1014.1